Temperature
15 15 15 15 15 15 15 15 15 16 16 16 16 16 17 17 17 17 17 17 18 18 18 18 18 18 18 18 18 18 18 18 18 18 18 18 18 18 18 17 17 17 17
15 15 15 15 15 15 15 15 15 15 16 16 16 16 16 16 17 17 17 17 17 18 18 18 18 18 18 18 18 18 18 18 18 18 18 18 18 18 18 17 17 17 17
14 14 14 14 15 15 15 15 15 15 15 16 16 16 16 16 17 17 17 17 17 17 18 18 18 18 18 18 18 18 18 18 18 18 18 18 18 18 18 18 17 17 17
14 14 14 14 14 14 14 15 15 15 15 15 16 16 16 16 16 17 17 17 17 17 17 18 18 18 18 18 18 18 18 18 18 18 18 18 18 18 18 18 18 17 17
14 14 14 14 14 14 14 14 14 15 15 15 15 16 16 16 16 16 17 17 17 17 17 18 18 18 18 18 18 18 18 18 18 18 18 18 18 18 18 18 18 17 17
13 13 14 14 14 14 14 14 14 14 15 15 15 15 16 16 16 16 17 17 17 17 17 17 18 18 18 18 18 18 18 18 18 18 18 18 18 18 17 17 17 17 17
13 13 13 13 13 13 13 14 14 14 14 15 15 15 16 16 16 16 17 17 17 17 17 17 17 17 18 18 18 18 18 18 18 18 18 18 17 17 17 17 17 17 17
13 13 13 13 13 13 13 13 13 14 14 14 14 15 15 16 16 16 17 17 17 17 17 17 17 17 17 18 18 18 18 18 18 18 18 17 17 17 17 17 17 17 17
13 13 13 13 13 13 13 13 13 14 14 14 14 14 15 15 16 16 16 16 17 17 17 17 17 17 17 17 18 18 18 17 17 17 17 17 17 17 17 17 17 17 17
13 13 13 13 13 13 13 13 13 13 13 14 14 14 15 15 15 15 16 16 16 16 17 17 17 17 17 17 17 17 17 17 17 17 17 17 17 17 17 17 17 17 17
13 13 13 13 13 13 13 13 13 13 13 13 14 14 14 15 15 15 15 16 16 16 16 16 16 17 17 17 17 17 17 17 17 17 17 17 17 17 17 17 17 17 17
14 13 13 13 13 13 13 13 13 13 13 13 13 14 14 14 14 14 15 15 15 16 16 16 16 16 16 17 17 17 17 17 17 17 17 17 17 17 17 17 17 17 17
14 13 13 13 13 12 12 13 13 13 13 13 13 13 13 14 14 14 14 15 15 15 16 16 16 16 16 16 16 16 16 17 17 17 17 17 17 17 17 17 17 17 17
14 13 13 13 13 13 12 13 12 13 13 13 13 13 13 13 13 14 14 14 14 15 15 15 16 16 16 16 16 16 16 16 16 17 17 17 17 17 17 17 17 17 17
14 13 13 13 13 13 13 13 12 12 13 13 13 13 13 13 13 13 13 14 14 14 15 15 15 15 15 15 15 15 16 16 16 16 16 17 17 17 17 17 17 17 17
14 13 13 13 13 13 13 13 13 13 12 13 13 13 13 13 13 13 13 13 13 14 14 14 14 15 15 15 15 15 15 15 16 16 16 16 16 17 17 17 17 17 17
14 14 14 14 13 13 13 13 13 12 12 12 12 13 13 13 13 13 13 13 13 13 14 14 14 14 14 14 14 14 15 15 15 15 16 16 16 16 16 16 16 16 16
14 14 14 14 14 13 13 13 13 13 13 12 12 12 12 12 13 13 13 13 13 13 13 13 14 14 14 14 14 14 14 14 15 15 15 15 16 16 16 16 16 16 16
14 14 14 14 14 13 13 13 13 13 13 13 13 13 12 12 12 12 12 12 12 13 13 13 13 13 13 13 13 14 14 14 14 14 15 15 15 15 15 16 16 16 16
14 14 14 14 14 14 14 13 13 13 13 13 13 13 13 12 12 12 12 12 12 12 12 12 13 13 13 13 13 13 13 13 14 14 14 14 14 15 15 15 15 15 16
14 14 14 14 14 14 14 14 14 13 13 13 13 13 13 13 13 12 12 12 12 12 12 12 12 12 12 12 12 13 13 13 13 13 14 14 14 14 14 15 15 15 15
15 14 14 14 14 14 14 14 14 14 14 13 13 13 13 13 13 13 12 12 12 12 12 12 12 12 12 12 12 12 12 13 13 13 13 14 14 14 14 14 14 14 15
15 15 15 14 14 14 14 14 14 14 14 14 13 13 13 13 13 13 12 12 12 12 12 12 12 12 12 12 12 12 12 12 13 13 13 13 14 14 14 14 14 14 14
15 15 15 14 14 14 14 14 14 14 14 14 14 13 13 13 13 13 12 12 12 12 12 12 12 12 12 12 12 12 12 12 12 13 12 13 13 13 14 14 14 14 14
15 15 15 14 14 14 14 14 14 14 14 14 14 13 13 13 13 13 13 12 12 12 12 12 12 12 12 12 12 12 12 12 12 12 12 12 13 13 13 13 14 14 13
15 15 15 14 14 14 14 14 14 14 13 13 13 13 13 13 13 13 13 12 12 12 12 12 12 12 12 12 12 12 11 11 11 11 12 12 12 12 12 13 13 13 13
Wind_Speed
3 3 2 1 2 1 1 1 3 3 4 4 5 5 5 5 6 6 5 9 10 9 7 7 8 8 8 8 8 8 8 9 9 10 10 10 11 11 11 12 11 11 11
2 3 4 3 2 2 2 2 3 2 3 4 4 4 4 4 5 5 6 9 11 11 10 9 9 9 9 9 9 9 9 9 10 10 11 11 11 11 11 12 11 11 11
3 2 3 4 3 4 3 2 3 1 2 3 3 4 4 3 3 4 6 7 10 11 12 11 11 10 9 10 10 10 10 11 11 11 12 12 12 12 12 11 11 11 11
7 3 4 4 4 4 3 2 2 2 2 2 2 3 3 3 4 5 5 5 7 9 12 13 13 11 10 10 10 10 11 11 12 12 12 13 13 12 12 12 11 11 12
9 4 3 3 4 3 3 4 2 1 2 2 3 3 3 3 4 5 4 4 5 8 10 13 14 13 12 11 11 11 12 12 12 13 13 13 13 13 12 12 12 12 12
7 5 4 3 3 3 4 4 4 3 2 3 4 3 3 3 3 3 4 3 2 4 7 11 11 12 13 13 13 12 12 13 13 13 13 13 14 14 13 13 12 12 12
6 4 4 5 4 3 4 4 3 3 3 2 2 2 2 3 3 3 2 2 2 1 3 8 10 10 11 14 14 13 13 13 13 13 13 14 15 15 14 14 13 13 12
5 6 5 5 4 3 3 4 4 2 3 2 1 1 1 1 1 3 2 2 2 1 2 4 5 7 9 10 12 14 13 13 14 14 14 14 15 16 15 15 14 14 13
3 4 5 5 4 3 3 3 4 3 2 3 2 1 1 1 1 1 2 2 2 1 1 0 2 3 8 9 10 13 14 13 13 14 14 14 15 15 16 15 15 15 14
2 2 4 4 4 3 3 4 4 3 3 3 3 2 1 0 0 1 1 1 1 2 1 1 1 1 3 6 9 12 14 14 13 13 14 15 15 15 16 16 16 16 16
1 1 2 4 4 3 3 4 3 3 2 2 2 2 2 2 1 1 1 1 1 1 1 1 1 1 2 3 7 11 14 14 14 13 14 14 15 15 16 17 17 17 17
1 2 1 3 3 4 4 4 4 3 2 2 2 2 2 2 2 1 1 1 1 1 1 2 2 2 2 3 4 8 13 14 14 13 13 13 14 14 15 16 17 18 18
1 3 2 3 2 3 3 3 4 3 2 2 1 2 2 2 2 2 1 2 2 2 1 1 2 2 2 4 4 6 10 13 13 13 13 13 13 14 15 16 16 18 19
2 2 1 2 1 2 3 3 3 3 3 3 3 2 1 2 1 1 1 1 2 2 1 1 0 1 2 4 5 5 6 11 12 12 13 13 13 14 15 16 17 17 18
2 2 2 2 1 1 1 3 2 3 3 2 3 4 3 2 1 1 1 1 0 1 2 1 1 0 1 2 5 5 4 8 12 12 13 13 14 14 15 16 16 16 17
2 1 2 2 0 1 1 1 2 2 3 1 1 1 1 2 2 2 1 1 1 0 1 2 1 1 0 1 3 3 4 7 11 13 13 13 14 14 15 15 16 17 17
1 2 2 2 1 1 1 2 1 1 3 3 3 1 1 1 2 2 2 2 1 0 1 3 2 2 1 1 0 2 3 5 8 12 14 14 14 15 15 15 16 17 18
2 2 2 0 1 1 1 1 1 1 1 1 2 2 2 1 1 2 2 2 2 1 1 2 3 2 2 2 1 2 2 4 5 9 13 15 15 15 16 16 16 16 17
2 3 2 1 1 0 1 1 1 2 1 1 0 1 2 2 1 1 1 2 2 2 1 2 3 2 2 2 2 2 3 3 4 7 10 13 15 16 16 17 17 17 17
2 2 1 1 1 1 0 2 2 2 2 1 1 1 0 1 2 3 2 3 2 2 2 2 3 2 2 3 1 2 3 3 3 4 4 7 11 15 17 17 17 18 18
3 2 1 1 1 1 1 0 3 4 3 2 1 2 2 3 3 1 1 3 4 3 3 2 2 2 2 2 2 2 3 4 4 3 3 3 4 5 8 13 16 17 18
3 2 2 3 3 2 3 3 1 4 5 4 3 2 3 5 5 5 4 4 3 3 3 2 2 2 3 2 2 2 2 3 3 2 1 4 3 4 5 7 12 15 17
5 5 4 4 4 3 5 5 5 3 5 5 4 3 1 2 4 3 5 7 7 9 8 4 3 4 3 3 2 3 3 3 4 4 2 5 4 5 5 9 12 14 15
5 5 5 5 4 4 7 7 6 5 6 6 5 4 3 1 3 1 1 2 3 4 6 5 4 3 2 2 2 3 4 5 6 5 4 4 4 4 5 5 11 13 15
4 3 4 5 4 4 6 6 5 4 5 6 5 3 2 2 2 2 0 3 3 3 3 4 5 5 6 7 5 2 3 3 5 4 2 3 3 3 4 5 6 11 13
5 4 4 4 4 3 4 5 5 3 5 4 3 2 3 4 4 3 0 2 3 3 4 3 3 5 5 5 6 5 4 3 3 3 2 1 2 2 3 3 2 3 6
Wind_Direction
338 338 305 289 290 305 267 270 249 240 233 235 226 221 221 223 235 240 201 189 185 190 194 196 192 187 190 190 186 179 175 172 168 169 163 157 153 151 148 147 144 142 139
337 326 322 333 329 316 289 277 266 253 236 236 239 229 231 235 237 237 212 202 197 198 196 198 195 190 191 190 186 182 180 176 172 171 166 163 158 154 151 151 152 149 145
347 347 346 349 335 321 319 307 297 289 264 258 251 238 224 228 247 249 230 204 196 201 199 197 195 193 193 191 187 185 184 180 174 173 168 165 162 160 158 157 159 158 152
1 8 357 345 325 328 327 303 279 299 289 277 267 255 230 211 239 255 245 222 196 190 194 196 193 193 194 193 189 188 185 182 179 175 172 169 166 166 166 164 163 162 159
2 7 342 329 344 342 337 321 348 318 300 292 266 241 234 213 218 248 255 246 211 180 180 192 193 193 194 195 192 190 188 186 183 179 177 175 173 173 173 170 168 166 165
3 353 328 354 358 354 342 336 335 321 294 277 279 266 225 218 206 235 256 264 236 193 178 182 185 194 197 196 195 193 192 190 187 185 184 181 179 179 177 174 173 173 172
3 342 351 348 356 353 346 339 335 331 313 289 309 299 264 212 198 214 241 268 275 244 212 179 181 185 192 198 196 194 193 191 190 189 188 186 183 182 182 180 179 180 181
7 352 360 347 349 339 352 346 346 347 325 331 341 323 313 291 251 207 204 223 243 232 222 189 188 183 182 184 195 194 192 191 192 192 191 190 188 187 188 189 188 189 189
22 2 341 340 338 352 357 342 5 358 333 329 5 11 17 296 303 286 220 208 223 213 235 223 216 191 174 170 177 189 189 190 194 196 195 193 192 193 194 197 197 197 196
59 18 339 337 340 358 2 355 15 347 347 343 339 338 325 344 336 316 309 274 233 204 209 246 243 165 131 156 168 180 187 191 198 201 199 196 197 199 201 203 203 204 202
151 98 4 340 341 2 14 8 4 359 5 4 343 331 343 354 343 46 317 317 314 272 205 208 222 109 118 140 165 179 186 192 199 202 203 204 203 206 209 209 209 210 208
141 95 32 336 350 17 15 4 347 353 7 14 357 357 8 12 6 24 352 331 305 285 249 216 191 171 155 138 143 172 187 195 200 204 206 208 210 212 214 215 216 216 215
95 79 32 340 19 14 353 357 336 336 356 20 19 15 3 349 6 9 8 336 316 286 273 255 188 162 170 155 148 164 188 197 203 208 209 210 213 218 221 221 222 221 220
80 78 14 330 26 18 352 358 330 343 6 7 15 22 343 337 17 22 19 1 336 310 277 265 104 150 128 141 156 178 200 202 206 213 215 215 218 221 224 224 225 226 226
88 63 297 280 165 116 27 358 339 359 357 12 6 2 3 350 357 17 17 11 16 339 311 306 28 62 115 146 169 201 213 206 210 216 219 221 223 226 227 227 227 227 228
92 249 281 298 243 150 163 116 337 342 332 332 223 272 355 343 10 357 344 334 352 300 301 324 302 273 114 179 195 226 231 215 220 222 223 224 225 226 228 229 230 231 231
207 245 240 280 11 19 31 125 247 339 341 337 344 21 19 36 13 348 350 343 322 336 287 306 332 342 358 298 214 257 250 231 233 230 227 227 228 228 227 230 232 232 233
204 249 255 223 56 8 342 7 319 325 288 324 347 359 344 20 35 337 346 331 325 317 289 304 308 323 328 313 269 261 270 257 243 238 229 227 228 229 229 230 232 232 233
210 226 222 186 143 283 329 318 296 291 285 251 185 14 347 11 344 329 312 315 319 328 349 310 297 299 300 302 302 284 275 271 259 251 234 230 231 231 231 231 233 233 234
232 250 224 199 175 155 306 311 317 299 287 281 213 166 184 46 33 7 348 352 339 332 315 295 287 297 299 300 306 291 293 289 276 273 257 240 236 234 234 234 235 235 235
241 253 278 265 217 191 205 11 330 318 312 293 268 213 162 141 122 106 11 358 350 333 317 303 295 310 303 316 310 299 293 291 281 264 260 253 240 236 236 237 236 238 237
242 262 266 266 263 234 168 167 201 305 307 299 277 233 179 175 184 197 219 236 247 278 301 306 301 301 303 302 305 307 301 305 295 285 284 275 259 253 248 240 238 234 233
218 228 243 256 251 213 193 193 206 247 278 285 290 290 266 172 167 196 231 240 245 241 236 246 269 278 289 314 333 319 303 288 270 274 285 272 260 258 258 252 243 239 235
214 207 226 243 244 223 208 207 217 240 260 259 258 257 249 189 155 149 283 268 261 246 233 229 242 264 285 312 319 298 290 289 283 271 233 253 262 258 265 256 244 235 237
218 219 225 231 235 239 210 206 206 246 260 258 241 228 203 153 136 134 268 289 298 302 270 233 236 257 274 278 264 273 285 288 293 291 259 234 270 278 272 264 249 241 243
207 216 233 231 223 223 187 194 201 248 269 273 251 188 150 138 133 123 75 317 316 320 333 325 291 274 269 274 264 226 236 267 284 296 301 318 301 318 299 276 257 250 254
Height
1508 1507 1507 1507 1506 1506 1505 1505 1505 1505 1505 1505 1505 1506 1507 1509 1511 1512 1514 1516 1518 1519 1520 1522 1524 1525 1527 1529 1531 1532 1534 1536 1538 1540 1542 1543 1545 1547 1549 1550 1552 1553 1555
1507 1506 1506 1505 1505 1504 1504 1504 1503 1503 1503 1503 1503 1504 1505 1507 1508 1510 1511 1513 1515 1517 1518 1520 1522 1524 1525 1527 1529 1531 1533 1535 1537 1539 1541 1543 1545 1547 1549 1550 1552 1554 1555
1507 1506 1505 1504 1503 1503 1502 1502 1502 1501 1501 1501 1501 1502 1503 1504 1505 1507 1508 1511 1513 1514 1516 1518 1520 1522 1524 1526 1528 1530 1532 1534 1536 1538 1540 1542 1544 1546 1548 1550 1552 1554 1555
1506 1505 1503 1503 1502 1502 1501 1501 1500 1500 1500 1499 1500 1500 1501 1502 1503 1504 1506 1508 1510 1512 1514 1516 1518 1520 1522 1524 1526 1528 1530 1533 1535 1537 1539 1541 1544 1546 1548 1549 1551 1553 1555
1505 1504 1503 1502 1501 1500 1500 1499 1499 1498 1498 1498 1498 1499 1499 1500 1501 1502 1504 1506 1508 1510 1512 1514 1516 1518 1520 1522 1524 1526 1529 1531 1533 1536 1538 1540 1542 1545 1547 1549 1551 1552 1554
1504 1503 1502 1501 1500 1499 1498 1498 1497 1497 1497 1497 1497 1498 1498 1499 1500 1501 1502 1504 1506 1508 1510 1512 1514 1516 1518 1520 1522 1525 1527 1529 1531 1534 1536 1539 1541 1543 1545 1547 1549 1552 1553
1503 1503 1501 1500 1499 1498 1498 1497 1496 1496 1496 1497 1497 1497 1497 1497 1498 1499 1500 1502 1504 1506 1507 1510 1512 1514 1516 1518 1521 1523 1525 1527 1530 1532 1535 1537 1539 1542 1544 1546 1548 1550 1552
1503 1502 1501 1500 1499 1498 1497 1497 1496 1495 1495 1496 1496 1496 1496 1498 1498 1498 1499 1500 1502 1503 1505 1508 1510 1512 1514 1516 1518 1521 1523 1525 1527 1530 1532 1535 1537 1540 1542 1544 1547 1549 1551
1502 1501 1500 1499 1499 1498 1497 1496 1496 1495 1495 1495 1496 1497 1497 1497 1497 1498 1498 1499 1500 1502 1504 1506 1507 1510 1512 1514 1516 1519 1521 1523 1525 1527 1530 1533 1535 1537 1540 1542 1544 1547 1549
1502 1501 1500 1499 1498 1497 1497 1496 1496 1495 1495 1495 1495 1496 1497 1497 1497 1497 1498 1498 1499 1501 1502 1504 1506 1508 1510 1512 1514 1516 1519 1521 1523 1525 1528 1530 1533 1535 1537 1540 1542 1544 1546
1502 1501 1500 1499 1498 1497 1496 1496 1495 1495 1495 1495 1495 1495 1496 1496 1497 1497 1497 1498 1499 1500 1501 1502 1504 1506 1508 1509 1511 1514 1516 1519 1521 1523 1525 1527 1530 1532 1534 1537 1539 1541 1543
1502 1501 1500 1499 1498 1497 1496 1495 1495 1495 1495 1495 1495 1495 1495 1496 1496 1497 1497 1497 1498 1499 1500 1501 1502 1504 1506 1508 1509 1511 1514 1516 1518 1520 1522 1524 1527 1529 1531 1533 1536 1538 1540
1502 1501 1499 1499 1498 1496 1496 1495 1495 1495 1495 1495 1495 1495 1495 1495 1496 1496 1497 1497 1498 1498 1499 1499 1501 1502 1504 1505 1507 1509 1511 1513 1515 1517 1519 1521 1523 1525 1528 1530 1532 1534 1536
1501 1500 1499 1498 1497 1496 1495 1495 1495 1495 1495 1495 1495 1494 1494 1495 1495 1496 1496 1497 1497 1498 1498 1499 1499 1501 1502 1503 1504 1506 1508 1510 1512 1513 1516 1518 1520 1522 1524 1526 1528 1530 1532
1500 1499 1499 1498 1497 1496 1495 1495 1494 1494 1494 1494 1494 1494 1494 1494 1495 1495 1496 1496 1498 1497 1498 1498 1499 1499 1500 1502 1503 1504 1505 1507 1508 1510 1511 1513 1515 1517 1519 1521 1523 1526 1528
1499 1499 1498 1498 1497 1496 1496 1495 1494 1494 1494 1494 1494 1493 1493 1493 1494 1494 1495 1495 1496 1497 1497 1497 1498 1498 1499 1500 1500 1501 1502 1503 1504 1506 1507 1509 1511 1513 1515 1517 1519 1521 1523
1498 1498 1498 1498 1497 1497 1496 1495 1494 1494 1493 1493 1493 1493 1493 1493 1493 1493 1494 1494 1495 1495 1496 1496 1496 1497 1497 1498 1498 1499 1499 1500 1501 1502 1503 1505 1506 1508 1510 1511 1513 1515 1517
1498 1497 1498 1497 1497 1496 1496 1495 1494 1494 1493 1493 1493 1493 1492 1492 1492 1492 1492 1493 1493 1494 1494 1494 1494 1495 1495 1496 1496 1496 1496 1496 1497 1498 1499 1501 1502 1503 1505 1506 1508 1510 1511
1497 1497 1497 1497 1496 1496 1495 1495 1494 1494 1493 1493 1492 1492 1492 1492 1491 1491 1491 1491 1492 1492 1492 1492 1492 1493 1493 1493 1493 1493 1493 1494 1494 1495 1495 1496 1497 1498 1500 1501 1502 1504 1505
1495 1496 1496 1496 1495 1495 1494 1494 1493 1493 1493 1492 1492 1491 1491 1491 1490 1490 1490 1490 1490 1490 1490 1490 1491 1491 1491 1491 1491 1490 1490 1491 1491 1491 1492 1492 1493 1494 1495 1496 1497 1498 1499
1493 1494 1494 1494 1494 1494 1493 1493 1492 1492 1492 1492 1491 1491 1490 1490 1489 1489 1489 1488 1488 1488 1488 1488 1488 1489 1488 1488 1489 1488 1488 1487 1487 1488 1488 1488 1489 1489 1490 1490 1491 1492 1493
1491 1492 1492 1492 1492 1492 1492 1491 1491 1490 1490 1490 1490 1490 1489 1489 1488 1488 1487 1487 1487 1487 1486 1486 1486 1486 1486 1486 1486 1486 1485 1485 1484 1485 1484 1484 1485 1484 1485 1485 1486 1487 1488
1489 1489 1490 1490 1490 1490 1489 1489 1488 1488 1488 1488 1488 1488 1488 1487 1487 1486 1486 1485 1485 1485 1485 1485 1484 1484 1484 1484 1483 1483 1482 1482 1481 1481 1481 1480 1480 1480 1480 1480 1481 1482 1482
1486 1487 1487 1487 1487 1487 1486 1486 1486 1485 1485 1485 1486 1486 1486 1485 1485 1484 1484 1483 1483 1483 1483 1482 1482 1482 1481 1481 1481 1480 1479 1478 1478 1478 1478 1476 1476 1476 1476 1475 1476 1476 1477
1483 1483 1484 1484 1484 1483 1483 1483 1482 1482 1482 1482 1483 1483 1483 1483 1483 1482 1482 1482 1481 1481 1481 1480 1480 1479 1479 1478 1477 1477 1476 1475 1474 1474 1474 1473 1472 1472 1471 1471 1471 1471 1471
1479 1480 1480 1480 1480 1480 1479 1479 1479 1479 1478 1479 1480 1480 1480 1480 1480 1480 1480 1479 1479 1479 1478 1478 1477 1477 1476 1475 1475 1474 1474 1473 1472 1471 1471 1471 1469 1468 1467 1466 1466 1466 1466